Weather in Shalimovka

Russia / Oryol Oblast     52°30′59″N   37°10′26″E
temp.,
°C
wind,
m/s
gust,
m/s
humid.,
%
clouds,
%
prec.,
mm/h
press.,
hPa
HPBL,
m
25 june, sat
sat2500:00+15nne37895 0.0 1014106
03:00+14ne359140 0.0 101579
06:00+15ne38874 0.0 1016199
09:00+20ene477113 0.0 1017560
12:00+23ene575920 0.0 10171636
15:00+24ene565735 0.0 10171883
18:00+23ne476812 0.1 1017591
21:00+18ne47830 0.3 1018117
26 june, sun
sun2600:00+17ne46850 0.0 101991
03:00+17ne3877100 0.0 1020164
06:00+17ne38840 0.0 1020192
09:00+23ene47660 0.0 1021515
12:00+26ene58530 0.0 10211699
15:00+26ene5652100 0.0 10212237
18:00+22ne357345 0.0 1021109
21:00+20ne33800 0.0 102222
27 june, mon
mon2700:00+18nne22835 0.0 102211
03:00+17n22860 0.0 102214
06:00+19nnw23845 0.0 102368
09:00+24nnw23680 0.0 1022403
12:00+27nnw34600 0.0 10221148
15:00+29nne45554 0.0 10201934
18:00+28n35651 0.1 1020541
21:00+23nnw22805 0.5 102011
28 june, tue
tue2800:00+21nw23865 0.0 102023
03:00+20n369111 0.0 101998
06:00+20nne37915 0.0 1019166
09:00+25ne47655 0.0 1020483
12:00+27ene45551 0.0 10201260
15:00+27ne55565 0.1 10201579
18:00+24ene55722 0.1 1020991
21:00+19ene378443 0.3 1022178
29 june, wed
wed2900:00+16ene34785 0.0 102274
03:00+14e33725 0.0 102335
06:00+14ene247825 0.0 1023118
09:00+19ene34615 0.0 1023577
12:00+21ene345119 0.0 10231550
15:00+22ne44465 0.0 10232043
18:00+20ene566050 0.0 1023847
21:00+15ne48730 0.0 1023140